Regional Weather Roundup
Issued by NWS

Home | Current Version | Previous Version | Graphics & Text | Print | Product List | Glossary On
Versions: 1 2 3 4 5 6 7 8 9 10 11 12 13 14 15 16 17 18 19 20 21 22 23 24 25 26 27 28 29 30 31 32 33 34 35 36 37 38 39 40 41 42 43 44 45 46 47 48 49 50
000
ASUS43 KMPX 281510
RWRMN
WEATHER ROUNDUP FOR MINNESOTA
NATIONAL WEATHER SERVICE TWIN CITIES/CHANHASSEN MN
1000 AM CDT WED JUN 28 2017


NOTE: "FAIR" INDICATES FEW OR NO CLOUDS BELOW 12,000 FEET WITH NO
SIGNIFICANT WEATHER AND/OR OBSTRUCTIONS TO VISIBILITY. N/A MEANS
CURRENT SKY AND/OR WEATHER CONDITIONS ARE NOT AVAILABLE.

MNZ060>063-068>070-281600-
   Twin Cities Metro

CITY           SKY/WX    TMP DP  RH WIND       PRES   REMARKS
TWIN CITIES    LGT RAIN  67  62  84 S18G31    29.63S
ST PAUL        LGT RAIN  67  64  90 S18G24    29.64R
CRYSTAL        LGT RAIN  66  62  87 S12       29.61R
BLAINE         CLOUDY    66  66 100 S12G18    29.61S
LAKEVILLE      RAIN      63  63 100 S7        29.64S
EDEN PRAIRIE   LGT RAIN  67  64  90 S9        29.61F
SOUTH ST PAUL  PTSUNNY   65  64  99 S12G18    29.64R
LAKE ELMO      CLOUDY    66  63  88 S15       29.65S
$$
MNZ001>005-007-008-013>017-022>024-027-028-281600-
   Northwest Minnesota

CITY           SKY/WX    TMP DP  RH WIND       PRES   REMARKS
BEMIDJI        CLOUDY    59  56  90 E8        29.55S
HALLOCK        DRIZZLE   63  61  94 NE8       29.54F
ROSEAU         LGT RAIN  59  54  82 E5        29.59S
WARROAD        LGT RAIN  61  55  82 E6        29.59F
THIEF RVR FALL LGT RAIN  59  57  93 NE10      29.54F
CROOKSTON      LGT RAIN  57  57 100 E13       29.50F
FOSSTON        RAIN      57  57 100 E5        29.53S
DETROIT LAKES  CLOUDY    64  61  88 S13G18    29.50R
MOORHEAD       CLOUDY    68  63  83 S13       29.47R
PARK RAPIDS    LGT RAIN  62  58  86 E7        29.51S
MAHNOMEN       CLOUDY    61  59  92 E8        29.49F
$$
MNZ006-009>011-018-025>026-281600-
   North Central Minnesota

CITY           SKY/WX    TMP DP  RH WIND       PRES   REMARKS
BAUDETTE       CLOUDY    60  53  77 E6        29.61R
FLAG ISLAND    CLOUDY    63  52  67 CALM      29.59F
INTL FALLS     CLOUDY    61  51  70 SE9       29.62S
WASKISH        CLOUDY    61  55  82 E6        29.57F
BIG FORK       CLOUDY    61  54  77 E5        29.60S
LONGVILLE      CLOUDY    59  55  88 E6        29.55S
GRAND RAPIDS   LGT RAIN  60  55  83 VRB7      29.61S
CRANE LAKE     CLOUDY    63  54  72 SE5       29.65F
ORR            CLOUDY    61  50  67 SE3       29.61F
COOK           CLOUDY    63  54  72 SE6       29.64S
WALKER         CLOUDY    60  57  88 E5        29.54S
$$
MNZ012-019>021-037-281600-
   Northeast Minnesota

CITY           SKY/WX    TMP DP  RH WIND       PRES   REMARKS
DULUTH         LGT RAIN  56  49  77 SE12      29.68R
ELY            CLOUDY    64  52  63 SE7       29.66F
HIBBING        CLOUDY    61  53  75 SE10      29.63F
EVELETH        CLOUDY    61  48  61 E7        29.65F
DULUTH HARBOR  RAIN      52  48  87 E7        29.70R
TWO HARBORS    LGT RAIN  61  54  77 E6        29.68R
SILVER BAY     CLOUDY    59  52  77 E5        29.68F
GRAND MARAIS     N/A     52  46  80 NE12      29.72F
G MARAIS ARPRT PTSUNNY   59  46  63 SE3       29.74F
$$
MNZ029>031-032-039>041-046>048-054>057-064-281600-
   West Central Minnesota

CITY           SKY/WX    TMP DP  RH WIND       PRES   REMARKS
FERGUS FALLS   CLOUDY    66  64  94 S12       29.45S
WHEATON        CLOUDY    70  63  78 S14G20    29.45F
MORRIS         CLOUDY    68  63  83 S14G20    29.46F
ALEXANDRIA     CLOUDY    64  63  96 S18       29.50F
ELBOW LAKE     FAIR      65  63  94 S17       29.46F
WADENA         CLOUDY    63  61  94 S18       29.48F
GLENWOOD       LGT RAIN  64  63  94 SE15      29.51F
APPLETON       CLOUDY    70  63  78 SW9G16    29.48F
BENSON         DRIZZLE   66  63  88 S14G22    29.51F
ORTONVILLE     CLOUDY    68  63  83 W10G16    29.48S
MADISON        PTSUNNY   73  64  73 SW14G20   29.50F
WILLMAR        DRIZZLE   68  64  88 SW7       29.55F
$$
MNZ033>034-036-042>043-049>051-058-059-281600-
   Central Minnesota

CITY           SKY/WX    TMP DP  RH WIND       PRES   REMARKS
ST CLOUD       LGT RAIN  64  64 100 S8        29.56F FOG
SAUK CENTRE    CLOUDY    63  62  96 SE10G17   29.52F
PAYNESVILLE    CLOUDY    65  65 100 S10G16    29.55F
AITKIN         DRIZZLE   61  55  82 E12G21    29.56F
PINE RIVER     LGT RAIN  57  57 100 MISG      29.57F
BRAINERD       LGT RAIN  60  59  96 SE14G21   29.55F
STAPLES        CLOUDY    61  61 100 SE8       29.51F
LONG PRAIRIE   CLOUDY    63  61  94 E17G25    29.51F
LITTLE FALLS   LGT RAIN  61  61 100 SE12      29.54F
LITCHFIELD     LGT RAIN  66  64  94 S5        29.57F
BUFFALO        LGT RAIN  65  63  90 S7        29.60F
MAPLE LAKE     LGT RAIN  66  65  97 S8        29.58F
HUTCHINSON     DRIZZLE   67  66  97 S12       29.58F
$$
MNZ037-044-045-052-053-281600-
   East Central Minnesota

CITY           SKY/WX    TMP DP  RH WIND       PRES   REMARKS
PRINCETON      RAIN      66  64  94 S8        29.59F
MORA           RAIN      57  55  94 SE5       29.62F
CAMBRIDGE      RAIN      66  61  82 SE9       29.59F
RUSH CITY      LGT RAIN  61  59  94 S7        29.62S
MOOSE LAKE     RAIN      57  54  88 E3        29.61F
HINCKLEY       RAIN      57  57 100 SE5       29.62F
CLOQUET        RAIN      55  50  82 E7        29.66S
MCGREGOR       CLOUDY    59  55  88 SE14G22   29.60F
$$
MNZ071>073-080-081-089-090-097-098-281600-
   Southwest Minnesota

CITY           SKY/WX    TMP DP  RH WIND       PRES   REMARKS
MONTEVIDEO     CLOUDY    66  66 100 SW12      29.52S
GRANITE FALLS  DRIZZLE   69  65  87 S12       29.55F
CANBY          PTSUNNY   70  62  77 CALM      29.55R
MARSHALL       MOSUNNY   70  65  84 SW21      29.55S
REDWOOD FALLS  LGT RAIN  68  64  87 S16       29.55F
OLIVIA         LGT RAIN  68  63  83 S18G25    29.54F
PIPESTONE      LGT RAIN  68  64  88 W10       29.63R
WINDOM         CLOUDY    73  64  73 SW22G31   29.61F
WORTHINGTON    CLOUDY    71  64  78 SW22G29   29.62S
JACKSON        CLOUDY    72  63  73 SW22G30   29.64S
TRACY          PTSUNNY   69  65  86 SW21G28   29.59F
SLAYTON        CLOUDY    70  64  81 SW18G29   29.62F
$$
MNZ065>067-074>077-082>085-091>093-281600-
   South Central Minnesota

CITY           SKY/WX    TMP DP  RH WIND       PRES   REMARKS
MANKATO        LGT RAIN  67  65  93 SE9       29.62F
NEW ULM        CLOUDY    70  64  83 SW10      29.60F
ST JAMES       CLOUDY    72  64  78 SW9       29.62F
FAIRMONT       CLOUDY    73  64  73 SW12G20   29.64R
GLENCOE        DRIZZLE   67  67 100 S8        29.60F
FARIBAULT      LGT RAIN  64  63  94 SE10      29.65F
OWATONNA       LGT RAIN  66  63  88 SE9       29.66F
WASECA         PTSUNNY   64  63  94 SE8       29.66F
ALBERT LEA     CLOUDY    66  66 100 S9        29.66F
$$
MNZ078>079-086>088-094>096-281600-
   Southeast Minnesota

CITY           SKY/WX    TMP DP  RH WIND       PRES   REMARKS
ROCHESTER      CLOUDY    64  63  96 S16       29.71F
RED WING       CLOUDY    66  63  88 S7G20     29.66F
STANTON        DRIZZLE   67  62  86 S10G17    29.65R
DODGE CENTER   CLOUDY    64  63  94 S14       29.70S
WINONA         RAIN      66  63  88 S7G18     29.72R
AUSTIN         LGT RAIN  64  63  94 SE9       29.68F
PRESTON        LGT RAIN  64  62  94 S15       29.73F
$$
ABBREVIATIONS USED IN REMARKS
   TC - TEMPERATURES IN CELSIUS
  WCI - WIND CHILL INDEX
   HX - HEAT INDEX
  VSB - VISIBILITY
$$




USA.gov is the U.S. government's official web portal to all federal, state and local government web resources and services.